Погода в Карасуке

Погода в Карасуке : погода сейчас, прогноз погоды и архив. Всё, что Вы хотите узнать о погоде в Карасуке!

Хотите узнать прогноз погоды в Карасуке? Тогда Вам сюда: Погода в Карасуке

Поиск расширенной информации на нашем сайте:

Другие новости

Новости СМИ2

Главная страница сайта

Новости сайта

02.10.2013

Напоминаем, что на нашем новом сайте вы можете получить высокодетализированные прогнозы погоды по пунктам России, СНГ и мира (включающие важные для авиации метеовеличины, такие как направление и скорость ветра, видимость, явления погоды, количество и форма облачности, нижняя и верхняя граница облачности), а также ознакомиться с разнообразными материалами по авиационной метеорологии и подборкой полезных ссылок на эту тему.

Сайт Метеоцентр.Азия посвящён разработке технологий оптимизации авиаметеорологического обслуживания, включая проектирование и перспективное создание нескольких автоматизированных авиаметеорологических систем:
- система выпуска высокодетальных прогностических карт явлений погоды для нижнего воздушного пространства по России и ближнему зарубежью;
- система верификации прогнозов TAF (выпускаемых синоптиками официальных АМСГ РФ и ближнего зарубежья) и AUTOTAF (выпускаемых сайтом Метеоцентр.Азия) - выявление ошибок, онлайн-сопоставление с фактической погодой METAR, автоматическое внесение коррективов в прогнозы при резком отклонении фактической погоды от прогноза, подсчёт оправдываемости прогнозов по элементам и в целом;
- система обработки, анализа и отображения авиаметеорологической информации для применения провайдерами метеорологической информации.

Рекомендуем: контейнер прямоугольный с крышкой по низкой цене

Погода в Карасуке - сегодня

Время (UTC), дата Ветер
(°,м/с) 
Видим.   Явления Облачность Т
(°С)
Тd
(°С)
f(%) Тe
(°С)
Pmin
(гПа)
dP
(гПа)
Po
(мм)
O2
(г/м3)
Тmin Tmax R s Состояние
почвы
15 24.03.17 360 (С) 20000 м    10/4 300 м кучево-дожд., средняя, верхняя 
[Cb cap|Ac As|Ci fib]
-0.1 -4.3 73 -3  1018.7  -2.1  753  304           
18 24.03.17 010 (С) 20000 м    10/10 540 м кучево-дожд. 
[Cb cap]
+0.2 -2.6 81 -3  1015.9  -2.7  751  303           
21 24.03.17 010 (С) 20000 м  {ливн. осадки}  10/10 720 м 
[Sc]
+0.7 -0.8 90 -2  1014.5  -1.3  750  302           
00 25.03.17 010 (С) 20000 м  в посл. час ливневой снег  10/10 400 м кучево-дожд. 
[Cb cap]
+1.2 -0.1 91 -2  1013.9  -0.6  750  301  -0.2    14  неравномерный
мокрый или
старый снег
100% 
03 25.03.17 210 (ЮЗ) 7-10{10}  20000 м    10/10 450 м кучево-дожд. 
[Cb cap]
+1.1 -0.4 90 -3  1014.4  0.5  750  301           
06 25.03.17 220 (ЮЗ) 7{11}  20000 м    9/0 средняя, верхняя 
[Ac cast|Ci fib]
-0 -2.8 81 -4  1015.5  751  303           
09 25.03.17 230 (ЮЗ) 5{11}  20000 м    9/0 средняя 
[Ac cast]
-0.3 -4.5 73 -3  1017.2  1.7  752  304           
12 25.03.17 240 (ЮЗ) 20000 м    3/0 верхняя 
[Ci fib]
-0.1 -3.5 78 -3  1019.2  754  304    +1.3       
15 25.03.17 220 (ЮЗ) 20000 м    10/0 средняя 
[Ac und]
-1.3 -3.4 86 -3  1021.4  2.1  755  306           
18 25.03.17 240 (ЮЗ) 20000 м    ясно 
-3.3 -4.8 89 -4  1023.6  757  309           
21 25.03.17 250 (З) 4000 м  дымка  ясно 
-6.1 -7.1 93 -8  1025.7  758  313           
00 26.03.17 130 (ЮВ) 0200 м  переохл. туман  ?/? 30 
-8 -9.1 92 -8  1026.7  0.8  759  316  -8      14  неравномерный
мокрый или
старый снег
100% 
03 26.03.17 100 (В) 0200 м  переохл. туман  ?/? 60 
-7.5 -8.6 92 -10  1027.2  0.6  759  315  -8.8         
06 26.03.17 160 (Ю) 0200 м  переохл. туман  ?/? 100 
-4.8 -5.8 93 -8  1026.9  -0.2  759  312           
09 26.03.17 100 (В) 4000 м  в посл. час туман  10/10 210 м 
[St]
-1.9 -2.7 94 -5  1024.2  -2.5  757  308           
12 26.03.17 080 (В) 20000 м  {туман}  10/10 240 м 
[St]
-2.3 -3.2 94 -5  1020.7  -3.4  755  307    -1.7       
15 26.03.17 110 (В) 20000 м    10/10 270 м 
[St]
-3.2 -4 94 -5  1017.7  -3.1  752  307           
18 26.03.17 050 (СВ) 20000 м    10/0 средняя 
[Ac und]
-3.3 -4.2 93 -5  1014.6  -3.1  750  306           
21 26.03.17 040 (СВ) 10 км  слаб. снег  10/10 240 м 
[Ns]
-2.9 -3.7 94 -5  1012.1  -2.4  748  305           
00 27.03.17 360 (С) 10 км  слаб. снег  10/10 240 м 
[Ns]
-2.7 -3.4 95 -2  1012.1  0.1  748  305  -3.4    15  очень
неравномерный
сухой снег
(сугробы, заносы) 
03 27.03.17 300 (СЗ) 10 км  слаб. снег  10/10 240 м 
[Ns]
-2.9 -3.7 94 -6  1014.6  2.4  750  306           
06 27.03.17 210 (ЮЗ) 20000 м  {снег}  10/10 450 м кучево-дожд. 
[Cb cap]
-1.2 -3.3 86 -4  1016.7  2.2  752  305           
09 27.03.17 240 (ЮЗ) 20000 м    10/10 480 м кучево-дожд. 
[Cb cap]
-0.5 -3 83 -4  1019  2.2  753  304           
12 27.03.17 200 (Ю) 20000 м    10/10 420 м кучево-дожд. 
[Cb cap]
+0.5 -1.4 87 -2  1020  1.1  754  303    +0.5  0.0     
15 27.03.17 210 (ЮЗ) 20000 м    10/10 330 м кучево-дожд. 
[Cb cap]
+1.4 -0 90 -2  1021.4  1.4  755  303           
Время (UTC), дата Ветер
(°,м/с) 
Видим.   Явления Облачность Т
(°С)
Тd
(°С)
f(%) Тe
(°С)
Pmin
(гПа)
dP
(гПа)
Po
(мм)
O2
(г/м3)
Тmin Tmax R s Состояние
почвы

Для получения пояснительной информации подведите курсор к названию столбца.

ПОГОДА в Карасуке - архив

Всё, что Вы хотите узнать о погоде в Карасуке - удобно и подробно!

Выберите нужную дату (начиная с 1 января 2015* года) и нажмите кнопку "Найти".
Будут отображены архивные сводки погоды по пункту Карасук, начиная с указанной даты.


Отображать данные в формате CSV (для использования в таблицах Excel)


Внимание! Наш архив погоды предназначен исключительно для личного некоммерческого использования в познавательных целях. Если Вам необходимы официальные справки о состоянии погоды (для производственных, юридических, коммерческих и т.п. целей), обращайтесь в органы Росгидромета.

*Примечание: данная дата относится к архиву по метеостанциям СССР (Россия, СНГ, Балтия).
Архив по метеостанциям Зарубежной Европы и Азии (кроме Китая) хранится 10 дней, по другим регионам земного шара (Китай, Африка, Америка, Австралия, Океания) - 1 день.

Карасук - район местоположения метеостанции


Название, широта, долгота, высота метеостанции:
Карасук 53.7°ш. 78.1°д. 115 м над ур. моря [Российская Федерация]

Дополнительная информация

В oтличие oт бoльшинства пoгoдных сайтoв мы публикуем пoдрoбную метеoинфoрмацию в детальнoм прoфессиoнальнoм фoрмате.

Характеристики температуры и влажнoсти вoздуха измеряются на высoте 2 м в тени вдали oт зданий и деревьев.
Скoрoсть ветра измеряется на высoте 10 м (на урoвне рoста челoвека скoрoсть ветра ниже в 1.5-2 раза). Если метеoстанция нахoдится в гoрoде или в лесу, тo скoрoсть ветра занижена на 2-4 м/с пo сравнению с oткрытым местoм. Скoрoсть ветра над акватoриями крупных рек и oзёр, а также на вершинах хoлмoв на 2-5 м/с выше, чем в oбычных услoвиях.
Атмoсфернoе давление в разных тoчках местнoсти мoжет значительнo oтличаться oт давления на метеoстанции, в зависимoсти oт услoвий рельефа (при пoдъёме на 10 м давление пoнижается примернo на 1 мм рт.ст.).